Change the Weather History Date:

Friday, November 1, 2013

  Actual Average Record
Temperature  
Mean Temperature 54 °F -  
Max Temperature 60 °F 52 °F 71 °F (2003)
Min Temperature 48 °F 37 °F 28 °F (2002)
Degree Days  
Heating Degree Days 11    
Growing Degree Days 4 (Base 50)    
Moisture  
Dew Point 49 °F    
Average Humidity 81    
Maximum Humidity 100    
Minimum Humidity 52    
Precipitation  
Precipitation 0.42 in - - ()
Sea Level Pressure  
Sea Level Pressure 29.80 in    
Wind  
Wind Speed 16 mph (WSW)    
Max Wind Speed 30 mph    
Max Gust Speed 40 mph    
Visibility 9 miles    
Events Fog , Rain    
Averages and records for this station are not official NWS values.
T = Trace of Precipitation, MM = Missing Value Source: NWS Daily Summary

Daily Weather History Graph

Daily Weather History Graph

Search for Another Location

Airport or City:

Trip Planner

Search our weather history database for the weather conditions in past years. The results will help you decide how hot, cold, wet, or windy it might be!

Date:

Astronomy

Nov. 01, 2013 Rise Set
Actual Time 7:45 AM EDT 6:20 PM EDT
Civil Twilight 7:17 AM EDT 6:47 PM EDT
Nautical Twilight 6:46 AM EDT 7:18 PM EDT
Astronomical Twilight 6:16 AM EDT 7:49 PM EDT
Moon 5:37 AM EDT (11/1) 5:10 PM EDT (11/1)
Length of Visible Light 11h 29m
Length of Day
10h 34m
Waning Crescent, 4% of the Moon is Illuminated
Nov 1
Waning Crescent
Nov 3
New
Nov 10
First Quarter
Nov 17
Full
Nov 25
Last Quarter

Hourly Weather History & Observations

Time (EDT) Temp. Dew Point Humidity Pressure Visibility Wind Dir Wind Speed Gust Speed Precip Events Conditions
12:15 AM 53.6 °F 53.6 °F 100% 29.85 in 0.2 mi South 13.8 mph 24.2 mph N/A Fog Fog
12:35 AM 53.6 °F 53.6 °F 100% 29.84 in 0.2 mi South 15.0 mph 25.3 mph N/A   Drizzle
12:55 AM 53.6 °F 53.6 °F 100% 29.82 in 0.2 mi SSW 13.8 mph 20.7 mph N/A   Drizzle
1:15 AM 55.4 °F 55.4 °F 100% 29.83 in 0.2 mi SSW 18.4 mph 25.3 mph N/A Rain Light Rain
1:57 AM 55.4 °F 55.4 °F 100% 29.84 in 7.0 mi SSW 16.1 mph 25.3 mph N/A   Overcast
2:15 AM 55.4 °F 55.4 °F 100% 29.82 in 2.0 mi SSW 18.4 mph 28.8 mph N/A   Overcast
2:57 AM 57.2 °F 57.2 °F 100% 29.80 in 10.0 mi SSW 13.8 mph 34.5 mph N/A   Overcast
3:17 AM 57.2 °F 55.4 °F 94% 29.80 in 10.0 mi SSW 17.3 mph 33.4 mph N/A Rain Rain
3:38 AM 57.2 °F 57.2 °F 100% 29.78 in 10.0 mi SSW 23.0 mph 33.4 mph 0.01 in   Light Drizzle
3:57 AM 57.2 °F 57.2 °F 100% 29.77 in 10.0 mi SSW 15.0 mph 40.3 mph N/A   Overcast
4:17 AM 57.2 °F 55.4 °F 94% 29.76 in 10.0 mi SSW 16.1 mph 29.9 mph N/A   Overcast
4:37 AM 57.2 °F 55.4 °F 94% 29.76 in 10.0 mi SSW 19.6 mph 32.2 mph N/A   Overcast
4:57 AM 57.2 °F 55.4 °F 94% 29.76 in 10.0 mi SSW 17.3 mph 34.5 mph N/A   Overcast
5:17 AM 57.2 °F 55.4 °F 94% 29.75 in 10.0 mi SSW 17.3 mph 31.1 mph N/A   Overcast
5:35 AM 59.0 °F 55.4 °F 88% 29.74 in 10.0 mi SSW 21.9 mph 31.1 mph N/A   Overcast
5:55 AM 59.0 °F 55.4 °F 88% 29.75 in 10.0 mi SSW 17.3 mph 25.3 mph N/A   Overcast
6:15 AM 59.0 °F 55.4 °F 88% 29.75 in 10.0 mi SSW 20.7 mph 33.4 mph N/A   Overcast
6:35 AM 59.0 °F 55.4 °F 88% 29.74 in 10.0 mi SSW 18.4 mph 31.1 mph N/A   Overcast
6:55 AM 59.0 °F 55.4 °F 88% 29.77 in 7.0 mi West 23.0 mph 32.2 mph N/A   Overcast
7:15 AM 53.6 °F 53.6 °F 100% 29.79 in 0.2 mi West 21.9 mph 34.5 mph 0.27 in Rain Heavy Rain
7:35 AM 53.6 °F 53.6 °F 100% 29.80 in 0.5 mi West 23.0 mph 28.8 mph 0.38 in Rain Heavy Rain
7:55 AM 51.8 °F 51.8 °F 100% 29.80 in 0.5 mi West 25.3 mph 34.5 mph 0.02 in Rain Rain
8:15 AM 51.8 °F 51.8 °F 100% 29.80 in 5.0 mi West 28.8 mph 39.1 mph 0.03 in Rain Light Rain
8:35 AM 51.8 °F 51.8 °F 100% 29.81 in 10.0 mi West 29.9 mph 36.8 mph 0.03 in Rain Light Rain
8:55 AM 51.8 °F 51.8 °F 100% 29.81 in 7.0 mi West 26.5 mph 36.8 mph N/A Rain Light Rain
9:15 AM 51.8 °F 51.8 °F 100% 29.83 in 10.0 mi West 26.5 mph 35.7 mph N/A   Overcast
9:35 AM 51.8 °F 51.8 °F 100% 29.82 in 10.0 mi West 21.9 mph 34.5 mph N/A Rain Light Rain
9:55 AM 51.8 °F 51.8 °F 100% 29.82 in 10.0 mi West 24.2 mph 29.9 mph N/A   Overcast
10:15 AM 51.8 °F 51.8 °F 100% 29.82 in 10.0 mi West 21.9 mph 28.8 mph N/A   Overcast
10:35 AM 53.6 °F 51.8 °F 94% 29.82 in 10.0 mi West 19.6 mph 29.9 mph N/A   Overcast
10:55 AM 53.6 °F 51.8 °F 94% 29.82 in 10.0 mi West 20.7 mph 27.6 mph N/A   Overcast
11:15 AM 53.6 °F 51.8 °F 94% 29.82 in 10.0 mi West 17.3 mph 28.8 mph N/A   Overcast
11:35 AM 53.6 °F 51.8 °F 94% 29.83 in 10.0 mi West 17.3 mph 25.3 mph N/A   Overcast
11:55 AM 55.4 °F 51.8 °F 88% 29.82 in 10.0 mi West 17.3 mph 24.2 mph N/A   Overcast
12:15 PM 55.4 °F 50.0 °F 82% 29.83 in 10.0 mi West 16.1 mph 26.5 mph N/A   Mostly Cloudy
12:35 PM 55.4 °F 48.2 °F 77% 29.83 in 10.0 mi West 18.4 mph 26.5 mph N/A   Mostly Cloudy
12:55 PM 57.2 °F 48.2 °F 72% 29.83 in 10.0 mi WSW 17.3 mph 23.0 mph N/A   Mostly Cloudy
1:15 PM 57.2 °F 48.2 °F 72% 29.81 in 10.0 mi West 19.6 mph 25.3 mph N/A   Scattered Clouds
1:35 PM 59.0 °F 46.4 °F 63% 29.80 in 10.0 mi WSW 16.1 mph 23.0 mph N/A   Scattered Clouds
1:55 PM 60.8 °F 46.4 °F 59% 29.79 in 10.0 mi West 17.3 mph 26.5 mph N/A   Scattered Clouds
2:15 PM 60.8 °F 46.4 °F 59% 29.79 in 10.0 mi WSW 16.1 mph - N/A   Scattered Clouds
2:35 PM 60.8 °F 46.4 °F 59% 29.78 in 10.0 mi WSW 15.0 mph 19.6 mph N/A   Scattered Clouds
2:55 PM 60.8 °F 46.4 °F 59% 29.78 in 10.0 mi WSW 13.8 mph 20.7 mph N/A   Clear
3:15 PM 60.8 °F 46.4 °F 59% 29.78 in 10.0 mi WSW 10.4 mph - N/A   Clear
3:35 PM 60.8 °F 44.6 °F 55% 29.79 in 10.0 mi SW 16.1 mph 20.7 mph N/A   Clear
3:55 PM 60.8 °F 42.8 °F 52% 29.78 in 10.0 mi WSW 11.5 mph 23.0 mph N/A   Clear
4:15 PM 60.8 °F 42.8 °F 52% 29.78 in 10.0 mi WSW 12.7 mph 17.3 mph N/A   Clear
6:15 PM 57.2 °F 42.8 °F 59% 29.77 in 10.0 mi West 5.8 mph - N/A   Clear
6:35 PM 55.4 °F 42.8 °F 63% 29.78 in 10.0 mi West 6.9 mph - N/A   Clear
6:55 PM 55.4 °F 42.8 °F 63% 29.79 in 10.0 mi West 8.1 mph - N/A   Clear
7:15 PM 55.4 °F 42.8 °F 63% 29.80 in 10.0 mi West 6.9 mph - N/A   Clear
7:35 PM 55.4 °F 42.8 °F 63% 29.81 in 10.0 mi West 9.2 mph - N/A   Scattered Clouds
7:55 PM 53.6 °F 42.8 °F 67% 29.81 in 10.0 mi West 9.2 mph - N/A   Clear
8:15 PM 53.6 °F 41.0 °F 62% 29.81 in 10.0 mi West 10.4 mph - N/A   Clear
8:35 PM 53.6 °F 39.2 °F 58% 29.81 in 10.0 mi West 10.4 mph - N/A   Clear
8:55 PM 53.6 °F 39.2 °F 58% 29.81 in 10.0 mi West 10.4 mph - N/A   Clear
9:15 PM 53.6 °F 39.2 °F 58% 29.81 in 10.0 mi West 8.1 mph - N/A   Clear
9:35 PM 53.6 °F 39.2 °F 58% 29.81 in 10.0 mi WNW 8.1 mph - N/A   Scattered Clouds
9:55 PM 51.8 °F 41.0 °F 67% 29.82 in 10.0 mi NW 8.1 mph - N/A   Mostly Cloudy
10:15 PM 51.8 °F 41.0 °F 67% 29.82 in 10.0 mi WNW 6.9 mph - N/A   Scattered Clouds
10:35 PM 51.8 °F 41.0 °F 67% 29.82 in 10.0 mi NW 5.8 mph - N/A   Scattered Clouds
10:55 PM 50.0 °F 41.0 °F 71% 29.82 in 10.0 mi NW 5.8 mph - N/A   Scattered Clouds
11:15 PM 50.0 °F 42.8 °F 76% 29.82 in 10.0 mi WNW 6.9 mph - N/A   Mostly Cloudy
11:35 PM 48.2 °F 42.8 °F 82% 29.82 in 10.0 mi WNW 5.8 mph - N/A   Mostly Cloudy
11:55 PM 48.2 °F 42.8 °F 82% 29.82 in 10.0 mi WNW 6.9 mph - N/A   Scattered Clouds